Regional Weather Roundup
Issued by NWS Newport/Morehead, NC

Current Version | Previous Version | Text Only | Print | Product List | Glossary On
Versions: 1 2 3 4 5 6 7 8 9 10 11 12 13 14 15 16 17 18 19 20 21 22 23 24 25 26 27 28 29 30 31 32 33 34 35 36 37 38 39 40 41 42 43 44 45 46 47 48 49 50
000
ASUS42 KMHX 251622
RWRMHX
WEATHER ROUNDUP FOR EASTERN NORTH CAROLINA
NATIONAL WEATHER SERVICE NEWPORT/MOREHEAD CITY NC
1200 PM EDT SAT OCT 25 2014

NOTE: "FAIR" INDICATES FEW OR NO CLOUDS BELOW 12,000 FEET
WITH NO SIGNIFICANT WEATHER AND/OR OBSTRUCTIONS TO VISIBILITY

NCZ015>017-031-032-045>047-102-103-251700-
NORTH COAST

CITY           SKY/WX    TMP DP  RH WIND       PRES   REMARKS
EDENTON        SUNNY     65  50  58 SW6       29.98S
ELIZABETH CITY SUNNY     67  47  48 CALM      29.97F
KITTY HAWK     SUNNY     66  51  57 W7        29.95F
MANTEO         SUNNY     65  52  64 N5        29.96F

$$

NCZ045>047-081-094-103-104-251700-
CENTRAL COAST

CITY           SKY/WX    TMP DP  RH WIND       PRES   REMARKS
FRISCO         SUNNY     65  56  72 VRB6      29.97S
SWANQUARTER      N/A     68 N/A N/A W3        29.94S

$$

NCZ095-097-098-100-101-251700-
SOUTHERN COAST

CITY           SKY/WX    TMP DP  RH WIND       PRES   REMARKS
BEAUFORT       SUNNY     69  50  50 NW5       29.97F
CEDAR ISLAND     N/A     64 N/A N/A N3        30.00S
JACKSONVILLE   SUNNY     66  48  52 VRB3      29.98F
PINEY ISLAND   SUNNY     69  50  50 E6        29.98S
WILMINGTON     SUNNY     71  47  42 N5        29.98F


$$

NCZ011>013-027>030-043-044-078>080-089-090>093-098-251700-
COASTAL PLAIN

CITY           SKY/WX    TMP DP  RH WIND       PRES   REMARKS
AHOSKIE        SUNNY     64  41  43 N3        29.98F
CLINTON        SUNNY     65  50  57 N6        30.01R
ELIZABETHTOWN  SUNNY     66  47  49 NW6       30.00S
GOLDSBORO      SUNNY     67  51  56 VRB2      29.98S
GREENVILLE     SUNNY     64  45  48 N3        30.01S
HAVELOCK       SUNNY     69  46  43 CALM      29.99F
KENANSVILLE    SUNNY     67  47  48 NW6       30.00S
KINSTON        SUNNY     68  45  42 CALM      30.00R
NEW BERN       SUNNY     69  45  41 CALM      29.99F
RICHLANDS      SUNNY     70  46  43 W3        29.99S
ROCKY MOUNT    SUNNY     66  43  43 E3        30.00F
WASHINGTON     SUNNY     66  46  47 NE3       29.99S
WHITEVILLE     SUNNY     69  46  44 W3        29.99F

$$

AMZ130-135-150-152-154-156-158-170-250-252-270-ANZ085-086-088-633-658-670-251700-
MARINE OBSERVATIONS

STATION/POSITION TIME  TEMP    WIND        PRES    WAVE   SWELL
                       AIR SEA DIR/SP/G            HT/PER HT/PER
                 (UTC) (F)     (DEG/KT/KT) (MB)    (FT/S) (FT/S)
CHESAPEAKE LIGHT 1600   61     340/ 11/ 13 1015.2
64 E VA BEACH    1600   62 66  340/  8/ 10 1013.4    3/ 7   3/ 7
DUCK             1600   62 66  330/  7/  7 1013.8
2 E DUCK         1600                        N/A     3/10   2/11
10 NE DUCK       1600      67                N/A     3/ 8   2/11
OREGON INLET     1600   66 64  310/  4/  7 1014.3
13E OREGON INLT  1600      69                N/A     4/10   2/11
HATTERAS CG      1600   63 65  340/  8/  9 1015.0
DIAMOND BUOY     1500   65     350/  8/ 10 1014.8    3/ 9   3/ 9
17 S OCRACOKE    1500          VRB  6/  8  1014.9
CAPE LOOKOUT     1600   66      30/  5/  6 1014.9
BEAUFORT LAB     1600   66 67  320/  4/  5 1014.3
30 SE NEW RIVER  1600   65 74  350/ 10/ 12 1014.9    3/ 8   2/ 8
5 SE WRIGHTSVLE  1600   63 72   CALM  /  2   N/A
225 S CAPE HAT   1531   72 77   30/ 12/ 16 1013.7    4/ 9   3/ 9
41 SE CHARLESTON 1600   68 78  360/  8/ 12 1015.6    3/10   2/10

$$



USA.gov is the U.S. government's official web portal to all federal, state and local government web resources and services.